HST 1 20580U 90037B 25068.87515437 .00010959 00000-0 43718-3 0 9995 2 20580 28.4695 357.3585 0002159 60.5953 299.4856 15.23529329717517 ISS (ZARYA) 1 25544U 98067A 25069.36829310 .00013854 00000-0 25135-3 0 9994 2 25544 51.6377 76.4770 0006719 6.4623 133.8926 15.49866033499836 CXO 1 25867U 99040B 25071.59384992 .00000942 00000-0 00000+0 0 9998 2 25867 47.3636 134.5734 8566439 307.7117 0.3660 0.37809100 26734